Back to catalog

EKRAN 8

AliveCommunicationsGEO
NORAD 13056·PAYLOAD·🇷🇺 Russia

Launched Feb 5, 1982 from Baikonur Cosmodrome

Loading…

TLE

FreshSource: Space-Track

Epoch: Sep 14, 2026, 12:35 UTC

1 13056U 82009A   26257.52488876 -.00000008  00000-0  00000-0 0  9993
2 13056   6.8618 295.7180 0028669 339.6835  88.9118  0.99949538119514

Track EKRAN 8 in real time with AllMySat

Download on the App Store